H-2A R/B

Satellite information

Favourite Embed

Satellite Type and Status

ROCKET BODYIN ORBIT

Key statistics

Satellite H-2A R/B at a glance.

Uptime

3588

Days in orbit

Revolutions

≈ 15.4

Per day

Orbit

LEO

Low Earth Orbit

Inclination

30.6

Latest

Satellite identification and parameters

Extended collection of information and parameters for H-2A R/B.

Object identification

Identified? True

Debris? False

Object name: H-2A R/B

International designator: 2016-012E

Object number (NORAD): 41341

Object ID (CCSDS): 41341

Country: JAPAN (JPN)

Current information (Y/N): Y

RCS size: LARGE

Orbital parameters

Period: 93.238 minutes

Inclination: 30.6238 deg

SMA: 6811.162 km

Apoapsis: 438.45 km

Periapsis: 427.605 km

RAAN: 110.7113 deg

Eccentricy: 0.00079616

Argument of periapsis: 55.7969 deg

Mean anomaly: 304.3425 deg

Mean motion: 15.44439543 rev/day

Mean motion (dot): 0.00032382 rev/day2

B* drag term: 0.0006711475 1/REarth

Two-line elements (TLE)

Creation date: Dec. 14, 2025, 3:07 a.m.

Reference frame: TEME

Reference center: EARTH

Epoch: Dec. 13, 2025, 3:56 p.m. UTC

TLE line 0: 0 H-2A R/B

TLE line 1: 1 41341U 16012E 25347.66425897 .00032382 00000-0 67115-3 0 9992

TLE line 2: 2 41341 30.6238 110.7113 0007962 55.7969 304.3425 15.44439543542707

Live tracking on map

Real-time ground track for satellite H-2A R/B.

In-orbit conjunctions

A list of the most updated potential collisions computed for object H-2A R/B.

Target Orbit TCA Probability of collision Miss distance Type
PEGASUS R/B LEO 2025-06-09 20:25:43 0.0001005689 279.0 (m) ROCKET BODY
OV1-2 HEO 2025-05-04 11:43:11 0.0005290848 635.0 (m) PAYLOAD

Associated space launch

Astro-H is the 6th satellite in a series of X-ray telescopes by JAXA and ISAS. Its 4 instruments on board will cover the X-ray and Gamma ray regions. This region consists of photons with energy ranging from 0.3-600keV, and the telescope will provide the highest resolution ever achieved of 3-10 keV bands. The craft weighs 2.7 tonnes and will be placed into a circular orbit 575km above the ground, with an inclination of 31 degrees.

H-2A R/B was lifted into orbit during the mission ‘H-IIA 202 | Astro-H (Hitomi)’, on board a H-IIA space rocket.

The launch took place on Feb. 17, 2016, 8:45 a.m. from Yoshinobu Launch Complex LP-1.

For more information about the launch, click the button.

Launch to space H-IIA 202 | Astro-H (Hitomi)
H-IIA 202 | Astro-H (Hitomi)

Agency: N/A

Status: Launch Successful

Launch date: Feb. 17, 2016, 8:45 a.m. UTC

Rocket: H-IIA

Launch pad: Yoshinobu Launch Complex LP-1

Location: Tanegashima Space Center, Japan

...

Latest news about this satellite

There are no fresh news available about this satellite. Check back as we update our databases every day.


Newsletter sign-up

Weekly statistics, charts and insights to help you stay on top of the space industry.